Location: Unspecified
(0.0000°N, 0.0000°E)
Time: 08:32:24
(UTC+02:00)

Amateur Radio Satellites - All Passes

Search period start: 27 May 2016 08:02
Search period end: 28 May 2016 08:02
Location: Unspecified, 0.0000°N, 0.0000°E

Satellite Date Start Highest point End Downlink Frequencies (MHz)
Time Altitude Azimuth
GOMX 1 27 May 08:11:05 08:15:13 50° 101° (E) 08:19:16 467.674
NOAA 18 27 May 08:22:00 08:27:08 41° 283° (WNW) 08:32:18 137.9125
HO-68 27 May 08:28:25 08:31:45 14° 106° (ESE) 08:35:04 435.675
NOAA 15 27 May 08:29:53 08:34:09 25° 283° (WNW) 08:38:25 137.62
Cubesat XI-IV 27 May 08:30:50 08:35:49 41° 283° (WNW) 08:40:51 437.490
PHONESAT 2.4 27 May 08:34:55 08:37:48 36° 223° (SW) 08:40:41 2401.200-2431.200
STRAND 1 27 May 08:35:35 08:40:30 49° 78° (ENE) 08:45:23 437.568
ISS 27 May 08:42:13 08:45:20 45° 234° (SW) 08:48:28 145.825
CUTE 1.7 + AOD 2 27 May 08:47:36 08:48:18 10° 102° (ESE) 08:49:00 437.475
AUBIESAT-1 27 May 08:53:12 08:55:15 15° 107° (ESE) 08:57:22 437.475
PCSat 27 May 08:55:09 08:58:13 15° 110° (ESE) 09:01:16 145.827
M-CUBED/EXP-1 PRIME 27 May 08:58:20 09:01:06 24° 107° (ESE) 09:04:01 437.505
DOVE 4 27 May 09:03:57 09:08:04 73° 282° (WNW) 09:12:13 437.250
CUTE-I 27 May 09:21:00 09:22:18 11° 283° (WNW) 09:23:36 437.470
SRMSAT 27 May 09:26:59 09:30:33 16° 347° (NNW) 09:34:06 437.500
O/OREOS (USA 219) 27 May 09:29:13 09:33:14 29° 104° (ESE) 09:37:12 437.305
GONETS M04 27 May 09:35:05 09:38:45 13° 87° (E) 09:42:25
PRISM 27 May 09:39:04 09:42:50 35° 78° (ENE) 09:46:36 437.425
CINEMA 3 27 May 09:40:15 09:44:24 73° 102° (ESE) 09:48:41 145.822/145.860
CANX-2 27 May 09:52:14 09:56:28 65° 282° (WNW) 10:00:45 2200.000
SEEDS 27 May 09:56:32 10:00:47 79° 103° (ESE) 10:05:03 437.485
Cosmos 2499 27 May 10:03:21 10:06:08 12° 87° (E) 10:08:55 435.465 / 435.565
HO-68 27 May 10:12:02 10:19:04 61° 284° (WNW) 10:26:09 435.675
CUTE 1.7 + AOD 2 27 May 10:20:06 10:23:52 30° 281° (WNW) 10:27:39 437.475
Oscar 11 27 May 10:21:08 10:24:41 25° 102° (ESE) 10:28:16 145.826/435.025
AUBIESAT-1 27 May 10:27:58 10:29:32 13° 284° (WNW) 10:31:09 437.475
ZACube-1 27 May 10:33:19 10:37:10 32° 102° (ESE) 10:41:07 437.345
CUBEBUG 2 27 May 10:34:54 10:39:10 83° 280° (W) 10:43:35 437.445
PCSat 27 May 10:36:29 10:41:21 35° 289° (WNW) 10:46:13 145.827
COMPASS 1 27 May 10:44:35 10:48:17 31° 282° (WNW) 10:52:01 437.405
AIST 1 27 May 10:47:26 10:51:16 32° 266° (W) 10:55:07
AAUSAT CUBESAT 2 27 May 10:47:43 10:51:34 36° 282° (WNW) 10:55:26 437.432
BEESAT 2 27 May 10:59:21 11:00:40 11° 112° (ESE) 11:02:00 435.950
UWE-3 27 May 11:05:15 11:09:22 48° 281° (WNW) 11:13:38 435.000/436.395/437.385
ANTELSAT 27 May 11:07:34 11:09:56 14° 79° (ENE) 11:12:16 437.575/2403.000
O/OREOS (USA 219) 27 May 11:10:38 11:12:21 12° 285° (WNW) 11:14:03 437.305
FUNcube-1 27 May 11:11:20 11:15:37 73° 281° (WNW) 11:20:01 145.935
JUGNU 27 May 11:16:48 11:19:22 13° 10° (N) 11:21:55 437.505
DELFI C3 27 May 11:23:32 11:27:33 81° 101° (E) 11:31:35 145.870
GONETS M04 27 May 11:26:35 11:35:09 67° 267° (W) 11:43:49
BEESAT 3 27 May 11:32:54 11:36:48 87° 105° (ESE) 11:40:42 437.485
Cosmos 2499 27 May 11:50:03 11:58:56 78° 267° (W) 12:07:39 435.465 / 435.565
Oscar 11 27 May 11:58:29 12:00:34 13° 282° (WNW) 12:02:38 145.826/435.025
UNISAT 6 27 May 12:00:40 12:05:13 85° 82° (E) 12:09:39 437.425
TIGRISAT 27 May 12:08:27 12:13:01 81° 260° (W) 12:17:26 435.000
NANOSAT C BR1 27 May 12:15:14 12:17:01 12° 78° (ENE) 12:18:47 145.865
VELOX 1 27 May 12:20:47 12:21:54 11° 103° (ESE) 12:23:01 145.980
HUMSAT D 27 May 12:23:28 12:27:21 37° 281° (WNW) 12:31:18 437.325/437.525
BEESAT 2 27 May 12:35:04 12:38:15 23° 292° (WNW) 12:41:27 435.950
ANTELSAT 27 May 12:42:40 12:46:24 25° 257° (WSW) 12:50:03 437.575/2403.000
SO-50 27 May 12:50:54 12:55:10 47° 248° (WSW) 12:59:22 436.795
DUCHIFAT 1 27 May 12:51:52 12:55:53 41° 78° (ENE) 12:59:51 145.980
AISAT 27 May 12:53:48 12:57:50 37° 102° (ESE) 13:01:52 437.250
AIST 2 27 May 13:02:00 13:04:43 17° 112° (ESE) 13:07:27 435.215
DANDE 27 May 13:02:55 13:06:13 31° 91° (E) 13:10:24 436.750
JUGNU 27 May 13:04:14 13:09:05 25° 18° (NNE) 13:13:54 437.505
UKube-1 27 May 13:05:26 13:09:13 30° 102° (ESE) 13:13:01 .
SRMSAT 27 May 13:09:15 13:11:07 11° 8° (N) 13:12:59 437.500
JAS-2 27 May 13:10:26 13:11:55 11° 73° (ENE) 13:13:26 435.910
BUGSAT 1 27 May 13:12:52 13:16:37 31° 79° (ENE) 13:20:22 437.445
CUSAT 1 27 May 13:13:10 13:17:30 48° 278° (W) 13:23:09 437.405
POPSAT HIP 1 27 May 13:29:09 13:33:16 46° 258° (WSW) 13:37:21 437.405
ESTCUBE 1 27 May 13:29:17 13:33:33 42° 282° (WNW) 13:37:49 437.505/2401.250
QB50P1 27 May 13:29:38 13:33:43 45° 258° (WSW) 13:37:47 145.935-145.965
QB50P2 27 May 13:31:48 13:35:49 39° 258° (WSW) 13:39:46 145.880/145.840
POLYITAN 1 27 May 13:34:17 13:38:16 37° 258° (WSW) 13:42:12 437.675
50 SAT 27 May 13:46:32 13:49:37 25° 281° (WNW) 13:52:43 437.505
CUBEBUG 1 27 May 13:48:49 13:52:43 34° 282° (WNW) 13:56:38 437.445
NANOSAT C BR1 27 May 13:48:58 13:52:29 25° 258° (WSW) 13:56:00 145.865
DX 1 27 May 13:50:40 13:54:44 41° 282° (WNW) 13:58:50 434.975-435.025
VELOX 1 27 May 13:54:14 13:58:05 30° 282° (WNW) 14:01:57 145.980
SPROUT 27 May 14:18:17 14:22:18 43° 282° (WNW) 14:26:21 437.525
AIST 2 27 May 14:40:10 14:42:57 18° 292° (WNW) 14:45:44 435.215
UKube-1 27 May 14:44:16 14:45:00 10° 282° (WNW) 14:45:43 .
TISAT 1 27 May 14:44:21 14:48:30 80° 103° (ESE) 14:52:40 437.305
Oscar 19 27 May 14:45:24 14:50:23 47° 77° (ENE) 14:55:21 437.125/150
JAS-2 27 May 14:49:53 14:56:14 70° 258° (WSW) 15:03:25 435.910
JUGNU 27 May 14:52:24 14:58:18 66° 21° (NNE) 15:04:09 437.505
SRMSAT 27 May 14:56:38 15:01:06 22° 16° (NNE) 15:05:33 437.500
Gurwin Techsat 1B 27 May 15:04:27 15:08:48 26° 77° (ENE) 15:13:08 435.225
SWISSCUBE 27 May 15:11:16 15:15:03 23° 102° (ESE) 15:18:51 437.505
ITUPSAT 1 27 May 15:17:06 15:20:55 24° 103° (ESE) 15:24:45 437.325
ITAMSAT 1 27 May 15:28:18 15:30:51 14° 77° (ENE) 15:33:23 435.822/435.867
BEESAT 27 May 15:40:10 15:44:48 50° 102° (ESE) 15:49:26 436.000
YUBILEINY 27 May 16:15:50 16:22:27 24° 93° (E) 16:28:59 435.215
AO-7 27 May 16:39:37 16:47:02 37° 74° (ENE) 16:54:26 29.400- 29.500
Cosmos 2491 27 May 16:41:21 16:49:32 46° 87° (E) 16:57:42 435.465 / 435.565
JUGNU 27 May 16:41:44 16:47:22 45° 200° (SSW) 16:52:56 437.505
KKS-1 27 May 16:44:22 16:47:52 23° 102° (ESE) 16:51:23 437.445
Gurwin Techsat 1B 27 May 16:44:40 16:48:28 20° 257° (WSW) 16:52:17 435.225
SRMSAT 27 May 16:44:45 16:50:31 54° 21° (NNE) 16:56:18 437.500
SWISSCUBE 27 May 16:49:21 16:52:34 18° 283° (WNW) 16:55:49 437.505
ITUPSAT 1 27 May 16:55:17 16:58:29 18° 283° (WNW) 17:01:42 437.325
MOZHAYETS 4 27 May 16:56:14 16:59:58 24° 102° (ESE) 17:03:41
RS-15 27 May 17:03:32 17:14:10 59° 111° (ESE) 17:25:08 29.354- 29.394
ITAMSAT 1 27 May 17:05:21 17:10:02 35° 257° (WSW) 17:14:43 435.822/435.867
STARS 27 May 17:20:54 17:24:45 31° 102° (ESE) 17:28:39 437.465
Cosmos 2504 27 May 17:36:12 17:40:27 17° 94° (E) 17:44:40 435.465 / 435.565
YUBILEINY 27 May 18:10:48 18:18:51 42° 273° (W) 18:26:52 435.215
AO-85 27 May 18:17:16 18:21:12 58° 249° (WSW) 18:24:58 145.980
CUBESAT XI-V 27 May 18:20:46 18:24:12 20° 102° (ESE) 18:27:37 437.345
KKS-1 27 May 18:21:41 18:24:11 15° 282° (WNW) 18:26:40 437.445
HORYU 2 27 May 18:22:45 18:27:12 78° 78° (ENE) 18:31:37 437.375
AO-7 27 May 18:32:35 18:39:27 29° 254° (WSW) 18:46:19 29.400- 29.500
JUGNU 27 May 18:32:41 18:36:42 19° 195° (SSW) 18:40:43 437.505
SRMSAT 27 May 18:33:58 18:39:44 54° 201° (SSW) 18:45:31 437.500
MOZHAYETS 4 27 May 18:34:00 18:36:52 16° 282° (WNW) 18:39:44
Cosmos 2491 27 May 18:39:47 18:45:58 22° 267° (W) 18:52:12 435.465 / 435.565
STARS 27 May 19:00:12 19:00:51 10° 282° (WNW) 19:01:31 437.465
RS-15 27 May 19:18:16 19:26:13 23° 293° (WNW) 19:34:28 29.354- 29.394
NOAA 18 27 May 19:26:05 19:31:18 44° 77° (ENE) 19:36:28 137.9125
Cosmos 2504 27 May 19:26:44 19:33:28 43° 273° (W) 19:40:11 435.465 / 435.565
NOAA 15 27 May 19:26:49 19:32:00 57° 77° (ENE) 19:37:11 137.62
Cubesat XI-IV 27 May 19:30:45 19:35:39 38° 77° (ENE) 19:40:32 437.490
LilacSat-2 27 May 19:41:51 19:45:33 47° 79° (E) 19:49:14 437.200
DOVE 4 27 May 19:49:15 19:51:21 12° 78° (ENE) 19:53:26 437.250
CUBESAT XI-V 27 May 19:57:59 20:01:18 19° 282° (WNW) 20:04:38 437.345
PHONESAT 2.4 27 May 20:03:42 20:06:48 67° 316° (NW) 20:09:55 2401.200-2431.200
BRITE-PL 27 May 20:06:56 20:12:08 64° 259° (WSW) 20:17:38 437.365/2234.400
ISS 27 May 20:15:47 20:19:03 82° 305° (NW) 20:22:17 145.825
CUTE-I 27 May 20:16:45 20:21:59 59° 257° (WSW) 20:27:11 437.470
HO-68 27 May 20:21:59 20:23:24 11° 75° (ENE) 20:24:49 435.675
SRMSAT 27 May 20:24:42 20:29:10 22° 196° (SSW) 20:33:41 437.500
JUGNU 27 May 20:25:41 20:26:37 10° 186° (S) 20:27:32 437.505
GOMX 1 27 May 20:33:05 20:38:26 75° 258° (WSW) 20:43:54 467.674
AUBIESAT-1 27 May 20:52:04 20:55:23 20° 76° (ENE) 20:58:34 437.475
CUTE 1.7 + AOD 2 27 May 20:52:56 20:54:45 13° 78° (ENE) 20:56:32 437.475
M-CUBED/EXP-1 PRIME 27 May 20:57:42 21:01:49 32° 75° (ENE) 21:05:43 437.505
STRAND 1 27 May 21:07:56 21:13:01 65° 283° (WNW) 21:18:09 437.568
NOAA 18 27 May 21:09:34 21:11:39 12° 256° (WSW) 21:13:43 137.9125
Cubesat XI-IV 27 May 21:12:55 21:15:25 13° 257° (WSW) 21:17:55 437.490
COMPASS 1 27 May 21:16:11 21:17:18 11° 78° (ENE) 21:18:25 437.405
AIST 1 27 May 21:18:40 21:20:33 13° 94° (E) 21:22:26
DOVE 4 27 May 21:23:44 21:28:43 43° 258° (WSW) 21:33:42 437.250
PCSat 27 May 21:29:14 21:34:24 47° 71° (ENE) 21:39:33 145.827
O/OREOS (USA 219) 27 May 21:39:48 21:44:06 50° 76° (ENE) 21:48:26 437.305
PRISM 27 May 21:41:51 21:45:42 39° 102° (ESE) 21:49:33 437.425
UWE-3 27 May 21:44:16 21:44:47 10° 79° (E) 21:45:17 435.000/436.395/437.385
CINEMA 3 27 May 21:56:15 22:01:13 66° 258° (WSW) 22:06:01 145.822/145.860
CANX-2 27 May 21:58:59 22:03:03 50° 258° (WSW) 22:07:07 2200.000
SEEDS 27 May 22:02:00 22:06:11 86° 259° (WSW) 22:10:20 437.485
HO-68 27 May 22:03:36 22:10:44 72° 255° (WSW) 22:17:51 435.675
GONETS M04 27 May 22:05:05 22:12:32 30° 93° (E) 22:19:53
Cosmos 2499 27 May 22:13:36 22:15:33 11° 93° (E) 22:17:31 435.465 / 435.565
JUGNU 27 May 22:16:15 22:16:49 10° 175° (S) 22:17:23 437.505
SRMSAT 27 May 22:17:12 22:19:10 12° 188° (S) 22:21:08 437.500
AUBIESAT-1 27 May 22:26:21 22:29:34 19° 253° (WSW) 22:32:42 437.475
CUTE 1.7 + AOD 2 27 May 22:26:56 22:30:19 24° 258° (WSW) 22:33:42 437.475
Oscar 11 27 May 22:29:37 22:33:29 33° 79° (ENE) 22:37:19 145.826/435.025
M-CUBED/EXP-1 PRIME 27 May 22:33:58 22:35:59 13° 253° (WSW) 22:37:59 437.505
ZACube-1 27 May 22:43:12 22:47:26 45° 78° (ENE) 22:51:32 437.345
CUBEBUG 2 27 May 22:47:34 22:52:06 54° 258° (WSW) 22:56:28 437.445
COMPASS 1 27 May 22:49:09 22:52:36 26° 258° (WSW) 22:56:02 437.405
AAUSAT CUBESAT 2 27 May 22:51:39 22:55:18 31° 259° (WSW) 22:58:56 437.432
BEESAT 2 27 May 22:52:40 22:54:19 12° 68° (ENE) 22:55:56 435.950
AIST 1 27 May 22:54:21 22:57:51 24° 274° (W) 23:01:23
PCSat 27 May 23:16:20 23:17:33 11° 250° (WSW) 23:18:46 145.827
UWE-3 27 May 23:16:57 23:21:01 33° 258° (WSW) 23:24:58 435.000/436.395/437.385
ANTELSAT 27 May 23:19:29 23:22:51 21° 103° (ESE) 23:26:16 437.575/2403.000
FUNcube-1 27 May 23:21:17 23:25:34 51° 258° (WSW) 23:29:43 145.935
DELFI C3 27 May 23:22:36 23:26:33 78° 79° (E) 23:30:28 145.870
SO-50 27 May 23:24:30 23:27:26 16° 112° (ESE) 23:30:23 436.795
BEESAT 3 27 May 23:25:25 23:29:20 90° 107° (ESE) 23:33:14 437.485
GONETS M04 28 May 00:01:12 00:08:56 35° 273° (W) 00:16:39
Cosmos 2499 28 May 00:01:23 00:08:15 58° 273° (W) 00:15:17 435.465 / 435.565
JUGNU 28 May 00:02:51 00:06:45 18° 165° (SSE) 00:10:39 437.505
DANDE 28 May 00:07:52 00:11:25 14° 79° (E) 00:14:36 436.750
ESTCUBE 1 28 May 00:08:57 00:11:08 13° 78° (ENE) 00:13:18 437.505/2401.250
SRMSAT 28 May 00:09:09 00:09:34 10° 177° (S) 00:09:57 437.500
CUSAT 1 28 May 00:13:05 00:18:37 35° 81° (E) 00:22:57 437.405
UNISAT 6 28 May 00:13:44 00:18:05 63° 282° (WNW) 00:22:35 437.425
NANOSAT C BR1 28 May 00:20:24 00:22:44 15° 102° (ESE) 00:25:06 145.865
TIGRISAT 28 May 00:21:24 00:25:40 52° 282° (WNW) 00:30:04 435.000
CUBEBUG 1 28 May 00:24:36 00:26:48 14° 78° (ENE) 00:29:02 437.445
DX 1 28 May 00:27:25 00:28:30 11° 78° (ENE) 00:29:36 434.975-435.025
HUMSAT D 28 May 00:28:45 00:32:24 30° 258° (WSW) 00:36:01 437.325/437.525
BEESAT 2 28 May 00:28:47 00:31:53 22° 248° (WSW) 00:35:00 435.950
VELOX 1 28 May 00:30:46 00:33:34 16° 78° (ENE) 00:36:21 145.980
ANTELSAT 28 May 00:56:28 00:59:18 17° 281° (WNW) 01:02:12 437.575/2403.000
DUCHIFAT 1 28 May 00:57:17 01:01:18 49° 102° (ESE) 01:05:22 145.980
AIST 2 28 May 00:59:55 01:03:03 21° 68° (ENE) 01:06:11 435.215
SO-50 28 May 01:03:35 01:07:39 28° 292° (WNW) 01:11:48 436.795
AISAT 28 May 01:05:13 01:09:36 56° 78° (ENE) 01:13:58 437.250
UKube-1 28 May 01:13:45 01:17:49 40° 78° (ENE) 01:21:52 .
BUGSAT 1 28 May 01:16:04 01:19:39 32° 102° (ESE) 01:23:16 437.445
POPSAT HIP 1 28 May 01:35:30 01:39:22 37° 282° (WNW) 01:43:16 437.405
QB50P1 28 May 01:35:56 01:39:46 36° 282° (WNW) 01:43:39 145.935-145.965
50 SAT 28 May 01:36:47 01:40:05 34° 258° (WSW) 01:43:23 437.505
QB50P2 28 May 01:38:21 01:42:04 31° 282° (WNW) 01:45:49 145.880/145.840
POLYITAN 1 28 May 01:40:50 01:44:30 30° 282° (WNW) 01:48:14 437.675
ESTCUBE 1 28 May 01:43:54 01:47:40 27° 258° (WSW) 01:51:26 437.505/2401.250
DANDE 28 May 01:47:15 01:54:28 53° 268° (W) 02:00:08 436.750
JUGNU 28 May 01:50:35 01:56:08 42° 160° (SSE) 02:01:43 437.505
NANOSAT C BR1 28 May 01:55:04 01:58:13 21° 282° (WNW) 02:01:22 145.865
SRMSAT 28 May 01:56:08 01:59:47 16° 167° (SSE) 02:03:25 437.500
CUSAT 1 28 May 01:57:31 01:59:58 13° 272° (W) 02:02:13 437.405
CUBEBUG 1 28 May 01:59:11 02:02:49 25° 258° (WSW) 02:06:28 437.445
DX 1 28 May 02:00:33 02:04:25 31° 258° (WSW) 02:08:17 434.975-435.025
VELOX 1 28 May 02:06:21 02:09:45 22° 258° (WSW) 02:13:10 145.980
JAS-2 28 May 02:24:29 02:30:58 68° 102° (ESE) 02:36:42 435.910
SPROUT 28 May 02:25:55 02:29:50 34° 258° (WSW) 02:33:45 437.525
AIST 2 28 May 02:38:59 02:41:16 14° 248° (WSW) 02:43:35 435.215
TISAT 1 28 May 02:49:38 02:53:55 85° 260° (W) 02:58:08 437.305
Oscar 19 28 May 03:18:58 03:24:02 66° 282° (WNW) 03:29:07 437.125/150
SWISSCUBE 28 May 03:32:33 03:37:04 44° 78° (ENE) 03:41:35 437.505
ITUPSAT 1 28 May 03:38:43 03:43:16 46° 78° (ENE) 03:47:48 437.325
JUGNU 28 May 03:39:18 03:45:12 71° 339° (NNW) 03:51:10 437.505
Gurwin Techsat 1B 28 May 03:41:55 03:47:13 75° 102° (ESE) 03:52:32 435.225
SRMSAT 28 May 03:43:58 03:49:27 36° 161° (SSE) 03:54:56 437.500
ITAMSAT 1 28 May 04:00:58 04:05:45 37° 103° (ESE) 04:10:34 435.822/435.867
BEESAT 28 May 04:02:00 04:06:47 83° 262° (W) 04:11:31 436.000
RS-15 28 May 04:45:19 04:57:04 52° 69° (ENE) 05:08:24 29.354- 29.394
YUBILEINY 28 May 04:47:25 04:55:47 49° 87° (E) 05:04:10 435.215
AO-85 28 May 04:50:25 04:53:12 14° 111° (ESE) 04:56:01 145.980
KKS-1 28 May 04:56:20 05:00:25 35° 78° (ENE) 05:04:29 437.445
AO-7 28 May 05:05:09 05:13:21 61° 106° (ESE) 05:21:33 29.400- 29.500
MOZHAYETS 4 28 May 05:12:29 05:16:44 39° 78° (ENE) 05:20:58
Cosmos 2491 28 May 05:14:27 05:23:19 87° 95° (E) 05:32:10 435.465 / 435.565
JUGNU 28 May 05:29:26 05:34:25 27° 342° (NNW) 05:39:24 437.505
STARS 28 May 05:31:30 05:35:45 46° 78° (ENE) 05:39:58 437.465
SRMSAT 28 May 05:32:42 05:38:44 84° 339° (NNW) 05:44:46 437.500
ITAMSAT 1 28 May 05:42:29 05:44:56 13° 283° (WNW) 05:47:24 435.822/435.867
Cosmos 2504 28 May 05:44:28 05:51:48 29° 87° (E) 05:59:07 435.465 / 435.565
AO-85 28 May 06:28:35 06:33:25 38° 292° (WNW) 06:38:25 145.980
HORYU 2 28 May 06:35:06 06:39:31 70° 282° (WNW) 06:43:59 437.375
CUBESAT XI-V 28 May 06:38:15 06:42:28 35° 78° (ENE) 06:46:41 437.345
YUBILEINY 28 May 06:46:07 06:52:11 21° 267° (W) 06:58:20 435.215
BRITE-PL 28 May 06:59:04 07:01:15 14° 100° (E) 07:03:24 437.365/2234.400
RS-15 28 May 06:59:10 07:09:03 30° 249° (WSW) 07:18:44 29.354- 29.394
AO-7 28 May 07:00:44 07:05:42 17° 287° (WNW) 07:10:42 29.400- 29.500
CUTE-I 28 May 07:17:02 07:21:27 26° 103° (ESE) 07:25:53 437.470
JUGNU 28 May 07:21:19 07:24:07 13° 350° (N) 07:26:54 437.505
SRMSAT 28 May 07:22:46 07:28:03 32° 341° (NNW) 07:33:19 437.500
PHONESAT 2.4 28 May 07:32:41 07:35:45 65° 42° (NE) 07:38:50 2401.200-2431.200
LilacSat-2 28 May 07:36:26 07:39:58 37° 101° (ESE) 07:43:32 437.200
Cosmos 2504 28 May 07:36:51 07:44:47 38° 267° (W) 07:52:45 435.465 / 435.565
ISS 28 May 07:49:28 07:52:39 54° 55° (NE) 07:55:50 145.825
